TimeEST,TemperatureF,Dew PointF,Humidity,Sea Level PressureIn,VisibilityMPH,Wind Direction,Wind SpeedMPH,Gust SpeedMPH,PrecipitationIn,Events,Conditions,WindDirDegrees,DateUTC
12:14 AM,12.2,6.8,79,30.02,5.0,NNE,13.8,18.4,N/A,Snow,Light Snow,20,2014-01-21 05:14:00
12:34 AM,12.2,6.8,79,30.02,7.0,North,10.4,-,N/A,Snow,Light Snow,10,2014-01-21 05:34:00
12:54 AM,12.2,6.8,79,30.02,10.0,NNE,10.4,-,N/A,Snow,Light Snow,20,2014-01-21 05:54:00
1:14 AM,12.2,6.8,79,30.01,10.0,North,12.7,18.4,N/A,Snow,Light Snow,10,2014-01-21 06:14:00
1:34 AM,12.2,5.0,73,30.00,10.0,North,11.5,-,N/A,Snow,Light Snow,10,2014-01-21 06:34:00
1:54 AM,12.2,3.2,67,30.00,10.0,North,13.8,-,N/A,Snow,Light Snow,10,2014-01-21 06:54:00
2:14 AM,12.2,1.4,62,30.01,10.0,North,15.0,19.6,N/A,,Overcast,10,2014-01-21 07:14:00
2:34 AM,10.4,1.4,67,30.02,10.0,North,13.8,18.4,N/A,Snow,Light Snow,360,2014-01-21 07:34:00
2:54 AM,10.4,-0.4,62,30.03,10.0,North,9.2,-,N/A,,Overcast,360,2014-01-21 07:54:00
3:14 AM,10.4,-0.4,62,30.04,10.0,North,9.2,-,N/A,,Overcast,350,2014-01-21 08:14:00
3:34 AM,10.4,-2.2,57,30.05,10.0,North,12.7,16.1,N/A,,Overcast,360,2014-01-21 08:34:00
3:54 AM,10.4,-2.2,57,30.05,10.0,North,9.2,-,N/A,,Overcast,350,2014-01-21 08:54:00
4:15 AM,8.6,-2.2,62,30.04,10.0,North,9.2,-,N/A,,Overcast,350,2014-01-21 09:15:00
4:34 AM,8.6,-2.2,62,30.04,10.0,North,12.7,-,N/A,,Overcast,350,2014-01-21 09:34:00
4:54 AM,8.6,-0.4,67,30.05,10.0,North,11.5,-,N/A,,Overcast,350,2014-01-21 09:54:00
5:15 AM,8.6,-0.4,67,30.04,10.0,North,11.5,-,N/A,,Overcast,350,2014-01-21 10:15:00
5:34 AM,8.6,-2.2,62,30.05,10.0,North,11.5,-,N/A,,Overcast,350,2014-01-21 10:34:00
5:54 AM,6.8,-2.2,67,30.05,10.0,North,9.2,-,N/A,,Overcast,350,2014-01-21 10:54:00
6:14 AM,6.8,-2.2,67,30.06,10.0,NNW,11.5,-,N/A,,Overcast,340,2014-01-21 11:14:00
6:34 AM,6.8,-2.2,67,30.06,10.0,North,9.2,-,N/A,,Overcast,350,2014-01-21 11:34:00
6:54 AM,6.8,-2.2,67,30.07,10.0,North,9.2,-,N/A,,Overcast,350,2014-01-21 11:54:00
7:14 AM,6.8,-2.2,67,30.08,10.0,North,10.4,-,N/A,,Mostly Cloudy,350,2014-01-21 12:14:00
7:34 AM,6.8,-2.2,67,30.09,10.0,North,10.4,-,N/A,,Scattered Clouds,350,2014-01-21 12:34:00
7:54 AM,6.8,-2.2,67,30.10,10.0,North,12.7,17.3,N/A,,Clear,350,2014-01-21 12:54:00
8:14 AM,6.8,-2.2,67,30.10,10.0,NNW,13.8,20.7,N/A,,Mostly Cloudy,330,2014-01-21 13:14:00
8:34 AM,6.8,-0.4,72,30.11,10.0,North,10.4,-,N/A,,Overcast,350,2014-01-21 13:34:00
8:54 AM,6.8,-0.4,72,30.12,10.0,North,9.2,-,N/A,,Overcast,350,2014-01-21 13:54:00
9:14 AM,6.8,-0.4,72,30.11,7.0,North,12.7,17.3,N/A,,Overcast,350,2014-01-21 14:14:00
9:34 AM,8.6,-0.4,67,30.12,5.0,North,11.5,-,N/A,,Haze,350,2014-01-21 14:34:00
9:55 AM,8.6,-0.4,67,30.13,7.0,North,15.0,19.6,N/A,,Overcast,360,2014-01-21 14:55:00
10:14 AM,6.8,-0.4,72,30.13,10.0,North,12.7,-,N/A,,Overcast,350,2014-01-21 15:14:00
10:34 AM,8.6,-0.4,67,30.13,10.0,North,10.4,-,N/A,,Mostly Cloudy,350,2014-01-21 15:34:00
10:55 AM,8.6,-0.4,67,30.14,10.0,NNW,11.5,-,N/A,,Scattered Clouds,340,2014-01-21 15:55:00
11:14 AM,10.4,-0.4,62,30.14,10.0,NNW,11.5,-,N/A,,Clear,340,2014-01-21 16:14:00
11:34 AM,10.4,1.4,67,30.14,10.0,North,11.5,16.1,N/A,,Clear,350,2014-01-21 16:34:00
11:54 AM,10.4,1.4,67,30.14,10.0,North,12.7,-,N/A,,Scattered Clouds,350,2014-01-21 16:54:00
12:14 PM,10.4,1.4,67,30.13,10.0,North,10.4,16.1,N/A,,Mostly Cloudy,350,2014-01-21 17:14:00
12:34 PM,10.4,1.4,67,30.13,10.0,North,10.4,-,N/A,,Overcast,350,2014-01-21 17:34:00
12:54 PM,12.2,1.4,62,30.12,10.0,North,9.2,-,N/A,,Overcast,10,2014-01-21 17:54:00
1:14 PM,12.2,1.4,62,30.12,10.0,NNE,10.4,-,N/A,,Overcast,30,2014-01-21 18:14:00
1:34 PM,12.2,3.2,67,30.11,2.5,NNE,9.2,-,N/A,Snow,Light Snow,30,2014-01-21 18:34:00
1:54 PM,10.4,3.2,73,30.11,2.5,North,8.1,-,N/A,Snow,Light Snow,10,2014-01-21 18:54:00
2:14 PM,12.2,3.2,67,30.11,10.0,NNE,10.4,-,N/A,,Overcast,20,2014-01-21 19:14:00
2:34 PM,12.2,3.2,67,30.11,1.5,North,6.9,-,N/A,Snow,Light Snow,350,2014-01-21 19:34:00
2:54 PM,10.4,3.2,73,30.11,2.0,North,9.2,-,N/A,Snow,Light Snow,360,2014-01-21 19:54:00
3:14 PM,12.2,1.4,62,30.11,7.0,North,6.9,-,N/A,,Overcast,10,2014-01-21 20:14:00
3:35 PM,10.4,5.0,79,30.12,1.2,North,8.1,-,N/A,Snow,Light Snow,360,2014-01-21 20:35:00
3:54 PM,12.2,5.0,73,30.13,2.0,North,5.8,-,N/A,Snow,Light Snow,10,2014-01-21 20:54:00
4:14 PM,10.4,1.4,67,30.13,5.0,North,5.8,-,N/A,,Haze,360,2014-01-21 21:14:00
4:34 PM,10.4,3.2,73,30.14,1.5,NNE,5.8,-,N/A,Snow,Light Snow,20,2014-01-21 21:34:00
4:54 PM,10.4,3.2,73,30.14,7.0,North,4.6,-,N/A,,Overcast,10,2014-01-21 21:54:00
5:14 PM,10.4,1.4,67,30.14,10.0,North,10.4,-,N/A,,Overcast,360,2014-01-21 22:14:00
5:34 PM,10.4,-0.4,62,30.15,10.0,North,6.9,-,N/A,,Mostly Cloudy,350,2014-01-21 22:34:00
5:54 PM,8.6,-2.2,62,30.15,10.0,NNW,9.2,-,N/A,,Mostly Cloudy,330,2014-01-21 22:54:00
6:14 PM,8.6,-4.0,57,30.16,10.0,NNW,12.7,-,N/A,,Scattered Clouds,330,2014-01-21 23:14:00
6:34 PM,8.6,-4.0,57,30.16,10.0,NNW,9.2,-,N/A,,Clear,330,2014-01-21 23:34:00
6:54 PM,8.6,-4.0,57,30.17,10.0,NNW,11.5,-,N/A,,Clear,330,2014-01-21 23:54:00
7:14 PM,8.6,-5.8,52,30.17,10.0,NNW,9.2,-,N/A,,Clear,330,2014-01-22 00:14:00
7:34 PM,6.8,-5.8,56,30.17,10.0,NNW,11.5,-,N/A,,Clear,330,2014-01-22 00:34:00
7:54 PM,6.8,-5.8,56,30.17,10.0,NNW,10.4,-,N/A,,Clear,340,2014-01-22 00:54:00
8:14 PM,6.8,-5.8,56,30.17,10.0,NNW,10.4,-,N/A,,Clear,330,2014-01-22 01:14:00
8:34 PM,5.0,-5.8,61,30.17,10.0,NNW,8.1,-,N/A,,Clear,330,2014-01-22 01:34:00
8:54 PM,3.2,-5.8,66,30.17,10.0,NNW,6.9,-,N/A,,Clear,330,2014-01-22 01:54:00
9:15 PM,3.2,-5.8,66,30.17,10.0,NNW,5.8,-,N/A,,Clear,340,2014-01-22 02:15:00
9:34 PM,3.2,-5.8,66,30.17,10.0,NNW,4.6,-,N/A,,Clear,340,2014-01-22 02:34:00
9:54 PM,3.2,-7.6,61,30.17,10.0,NNW,5.8,-,N/A,,Clear,340,2014-01-22 02:54:00
10:14 PM,1.4,-5.8,72,30.17,10.0,NNW,4.6,-,N/A,,Clear,330,2014-01-22 03:14:00
10:34 PM,3.2,-5.8,66,30.16,10.0,Calm,Calm,-,N/A,,Clear,0,2014-01-22 03:34:00
10:54 PM,1.4,-5.8,72,30.16,10.0,Calm,Calm,-,N/A,,Clear,0,2014-01-22 03:54:00
11:14 PM,1.4,-5.8,72,30.16,10.0,Calm,Calm,-,N/A,,Clear,0,2014-01-22 04:14:00
11:34 PM,1.4,-5.8,72,30.16,10.0,NNW,4.6,-,N/A,,Clear,330,2014-01-22 04:34:00
11:54 PM,-0.4,-5.8,78,30.17,10.0,NW,4.6,-,N/A,,Clear,310,2014-01-22 04:54:00